Location: Unspecified
(10.5000°N, 0.0000°E)
Time: 15:23:43
(UTC+00:00)

Hubble Space Telescope - Visible Passes

Search period start: 16 June 2019 00:00
Search period end: 26 June 2019 00:00
Orbit: 536 x 540 km, 28.5° (Epoch: 15 June)

Date Brightness Start Highest point End Pass type
(mag) Time Alt. Az. Time Alt. Az. Time Alt. Az.
20 Jun 2.6 05:07:07 10° NW 05:10:48 31° NNE 05:14:29 10° E visible
20 Jun 2.6 18:47:32 10° S 18:49:44 14° SSE 18:51:58 10° ESE visible
20 Jun 3.0 20:26:41 10° WSW 20:27:47 18° WSW 20:27:47 18° WSW visible
21 Jun 3.7 03:17:33 11° N 03:18:43 12° NNE 03:20:20 10° NE visible
21 Jun 2.0 04:56:24 10° NW 05:00:19 42° NNE 05:04:14 10° E visible
21 Jun 1.6 20:16:10 10° WSW 20:19:19 48° W 20:19:19 48° W visible
22 Jun 3.6 03:08:30 15° NNE 03:08:30 15° NNE 03:10:41 10° NE visible
22 Jun 1.3 04:45:47 10° NW 04:49:49 58° NNE 04:53:53 10° ESE visible
22 Jun 1.5 20:05:47 10° WSW 20:09:47 49° NNW 20:10:47 39° NNE visible
23 Jun 3.8 02:59:41 14° NE 02:59:41 14° NE 03:00:48 10° ENE visible
23 Jun 0.8 04:35:12 10° WNW 04:39:19 82° NNE 04:43:26 10° ESE visible
23 Jun 2.2 19:55:28 10° W 19:59:18 36° NNW 20:02:06 16° NE visible
24 Jun 0.6 04:26:31 25° WNW 04:28:47 71° SSW 04:32:53 10° SE visible
24 Jun 2.7 19:45:16 10° W 19:48:50 28° NNW 19:52:24 10° NE visible
25 Jun 0.9 04:18:02 48° SW 04:18:15 49° SSW 04:22:14 10° SE visible
25 Jun 3.2 19:35:09 10° WNW 19:38:23 22° NNW 19:41:37 10° NNE visible
